Weather History for Indianapolis, IN

Change the Weather History Date:

Sunday, March 2, 2014

  Actual Average Record
Temperature  
Mean Temperature 20 °F 37 °F  
Max Temperature 25 °F 46 °F 74 °F (1992)
Min Temperature 14 °F 28 °F -7 °F (1980)
Degree Days  
Heating Degree Days 45 28  
Month to date heating degree days 73 56  
Since 1 July heating degree days 4870 4199  
Cooling Degree Days 0 0  
Month to date cooling degree days 0 0  
Year to date cooling degree days 0 0  
Moisture  
Dew Point 15 °F    
Average Humidity 78    
Maximum Humidity 84    
Minimum Humidity 71    
Precipitation  
Precipitation 0.29 in 0.09 in 1.56 in (1945)
Month to date precipitation 0.29 0.19  
Year to date precipitation 5.08 5.17  
Snow  
Snow 2.40 in 0.20 in 2.00 in (1943)
Month to date snowfall 2.4 0.3  
Since 1 July snowfall 54.7 23.4  
Snow Depth 0.00 in    
Sea Level Pressure  
Sea Level Pressure 30.23 in    
Wind  
Wind Speed 13 mph (North)    
Max Wind Speed 18 mph    
Max Gust Speed 24 mph    
Visibility 6 miles    
Events Fog , Rain , Snow    
T = Trace of Precipitation, MM = Missing Value Source: NWS Daily Summary

Daily Weather History Graph

Daily Weather History Graph

Search for Another Location

Airport:

Trip Planner

Search our weather history database for the weather conditions in past years. The results will help you decide how hot, cold, wet, or windy it might be!

Date:

Astronomy

Mar. 02, 2014 Rise Set
Actual Time 7:16 AM EST 6:38 PM EST
Civil Twilight 6:49 AM EST 7:05 PM EST
Nautical Twilight 6:18 AM EST 7:36 PM EST
Astronomical Twilight 5:47 AM EST 8:08 PM EST
Moon 7:48 AM EST (3/2) 8:33 PM EST (3/2)
Length of Visible Light 12h 15m
Length of Day
11h 21m
Waxing Crescent, 3% of the Moon is Illuminated
Mar 2
Waxing Crescent
Mar 8
First Quarter
Mar 16
Full
Mar 23
Last Quarter
Mar 30
New

Hourly Weather History & Observations

Time (EST) Temp. Windchill Dew Point Humidity Pressure Visibility Wind Dir Wind Speed Gust Speed Precip Events Conditions
12:54 AM 25.0 °F 14.8 °F 19.0 °F 78% 30.19 in 10.0 mi NNE 10.4 mph - N/A   Overcast
1:24 AM 24.1 °F 12.5 °F 19.0 °F 81% 30.18 in 10.0 mi North 12.7 mph - N/A   Overcast
1:40 AM 24.1 °F 13.1 °F 19.0 °F 81% 30.20 in 10.0 mi North 11.5 mph - N/A   Overcast
1:54 AM 24.1 °F 14.4 °F 19.0 °F 81% 30.23 in 10.0 mi North 9.2 mph - N/A   Overcast
2:54 AM 21.9 °F 11.7 °F 19.0 °F 89% 30.24 in 4.0 mi North 9.2 mph - 0.00 in Rain Light Freezing Rain
3:09 AM 21.9 °F 11.0 °F 19.9 °F 92% 30.20 in 4.0 mi NNE 10.4 mph - 0.00 in Rain Light Freezing Rain
3:25 AM 21.9 °F 9.8 °F 19.9 °F 92% 30.16 in 5.0 mi NNE 12.7 mph - 0.00 in   Light Freezing Drizzle
3:38 AM 21.9 °F 11.7 °F 19.9 °F 92% 30.17 in 7.0 mi North 9.2 mph - 0.00 in   Overcast
3:54 AM 21.9 °F 11.7 °F 19.9 °F 92% 30.19 in 9.0 mi NNE 9.2 mph - 0.00 in Snow Light Snow
4:05 AM 21.9 °F 11.0 °F 19.9 °F 92% 30.17 in 8.0 mi North 10.4 mph - 0.00 in Rain Light Freezing Rain
4:43 AM 21.9 °F 10.4 °F 19.9 °F 92% 30.18 in 5.0 mi North 11.5 mph - 0.02 in Rain Light Freezing Rain
4:54 AM 21.9 °F 9.8 °F 19.9 °F 92% 30.19 in 4.0 mi North 12.7 mph - 0.03 in Rain Light Freezing Rain
5:18 AM 21.0 °F 7.6 °F 18.0 °F 88% 30.19 in 4.0 mi North 15.0 mph - 0.01 in Snow Light Snow
5:44 AM 19.9 °F 6.7 °F 17.1 °F 89% 30.19 in 2.5 mi North 13.8 mph - 0.02 in Snow Light Snow
5:54 AM 19.9 °F 6.7 °F 17.1 °F 89% 30.22 in 3.0 mi North 13.8 mph - 0.03 in Snow Light Snow
6:44 AM 19.0 °F 4.5 °F 16.0 °F 88% 30.19 in 6.0 mi NNE 16.1 mph - 0.03 in Snow Light Snow
6:54 AM 19.0 °F 8.2 °F 16.0 °F 88% 30.22 in 8.0 mi NNE 9.2 mph - 0.03 in Snow Light Snow
7:18 AM 19.0 °F 6.1 °F 16.0 °F 88% 30.20 in 4.0 mi North 12.7 mph - 0.00 in Snow Light Snow
7:42 AM 18.0 °F 4.2 °F 15.1 °F 88% 30.21 in 1.5 mi North 13.8 mph - 0.02 in Snow Light Snow
7:54 AM 18.0 °F 4.2 °F 15.1 °F 88% 30.24 in 1.0 mi North 13.8 mph - 0.03 in Snow Light Snow
7:59 AM 18.0 °F 4.2 °F 14.0 °F 84% 30.21 in 0.8 mi North 13.8 mph - 0.00 in Snow Light Snow
8:25 AM 17.1 °F 4.3 °F 14.0 °F 88% 30.21 in 0.5 mi North 11.5 mph - 0.03 in Fog , Snow Snow
8:54 AM 17.1 °F 3.0 °F 14.0 °F 88% 30.25 in 0.5 mi North 13.8 mph - 0.05 in Fog , Snow Snow
9:00 AM 17.1 °F 3.6 °F 14.0 °F 88% 30.22 in 0.2 mi North 12.7 mph - 0.01 in Fog , Snow Heavy Snow
9:16 AM 17.1 °F 3.6 °F 14.0 °F 88% 30.22 in 0.2 mi North 12.7 mph - 0.04 in Fog , Snow Heavy Snow
9:26 AM 17.1 °F 2.0 °F 14.0 °F 88% 30.22 in 0.8 mi North 16.1 mph - 0.05 in Snow Light Snow
9:40 AM 17.1 °F 5.0 °F 14.0 °F 88% 30.23 in 3.0 mi North 10.4 mph - 0.06 in Snow Light Snow
9:54 AM 17.1 °F 3.6 °F 12.9 °F 84% 30.27 in 8.0 mi North 12.7 mph - 0.06 in Snow Light Snow
10:54 AM 19.0 °F 5.6 °F 14.0 °F 81% 30.27 in 10.0 mi North 13.8 mph - 0.00 in   Overcast
11:54 AM 19.9 °F 7.9 °F 14.0 °F 78% 30.26 in 10.0 mi NNE 11.5 mph - N/A   Overcast
12:26 PM 19.9 °F 6.2 °F 14.0 °F 78% 30.24 in 10.0 mi NNE 15.0 mph - N/A   Overcast
12:54 PM 21.0 °F 6.6 °F 15.1 °F 78% 30.25 in 10.0 mi North 17.3 mph - N/A   Overcast
1:05 PM 21.0 °F 8.1 °F 15.1 °F 78% 30.22 in 10.0 mi NNE 13.8 mph - N/A   Overcast
1:54 PM 21.0 °F 8.1 °F 14.0 °F 74% 30.25 in 10.0 mi NNE 13.8 mph - N/A   Overcast
2:04 PM 21.0 °F 8.6 °F 14.0 °F 74% 30.22 in 10.0 mi NNE 12.7 mph - N/A   Overcast
2:54 PM 19.9 °F 7.3 °F 14.0 °F 78% 30.24 in 10.0 mi North 12.7 mph - 0.00 in   Overcast
3:54 PM 19.9 °F 6.7 °F 12.9 °F 74% 30.25 in 4.0 mi North 13.8 mph - 0.00 in Snow Light Snow
4:07 PM 19.9 °F 8.6 °F 14.0 °F 78% 30.21 in 2.0 mi North 10.4 mph - 0.01 in Snow Light Snow
4:11 PM 19.9 °F 5.7 °F 14.0 °F 78% 30.22 in 1.8 mi North 16.1 mph - 0.01 in Snow Light Snow
4:14 PM 19.0 °F 5.0 °F 12.9 °F 77% 30.22 in 1.5 mi North 15.0 mph - 0.01 in Snow Light Snow
4:40 PM 19.0 °F 6.1 °F 14.0 °F 81% 30.23 in 0.8 mi North 12.7 mph - 0.01 in Snow Light Snow
4:54 PM 18.0 °F 5.4 °F 14.0 °F 84% 30.27 in 0.8 mi North 11.5 mph - 0.02 in Snow Light Snow
5:24 PM 18.0 °F 5.4 °F 14.0 °F 84% 30.24 in 1.0 mi North 11.5 mph - 0.01 in Snow Light Snow
5:54 PM 17.1 °F 5.8 °F 14.0 °F 88% 30.28 in 0.8 mi NNW 9.2 mph - 0.03 in Snow Light Snow
6:07 PM 17.1 °F 5.0 °F 14.0 °F 88% 30.23 in 1.0 mi North 10.4 mph - 0.00 in Snow Light Snow
6:33 PM 17.1 °F 3.6 °F 14.0 °F 88% 30.24 in 2.5 mi North 12.7 mph - 0.01 in Snow Light Snow
6:54 PM 17.1 °F 2.5 °F 12.9 °F 84% 30.27 in 2.5 mi North 15.0 mph - 0.01 in Snow Light Snow
7:11 PM 17.1 °F 3.6 °F 12.9 °F 84% 30.23 in 4.0 mi North 12.7 mph - 0.00 in Snow Light Snow
7:54 PM 16.0 °F 0.6 °F 10.0 °F 77% 30.29 in 10.0 mi North 16.1 mph - 0.00 in   Overcast
7:59 PM 16.0 °F 0.6 °F 10.0 °F 77% 30.26 in 10.0 mi North 16.1 mph - N/A   Mostly Cloudy
8:54 PM 15.1 °F 1.1 °F 9.0 °F 77% 30.30 in 10.0 mi North 12.7 mph - N/A   Overcast
9:54 PM 15.1 °F 2.5 °F 9.0 °F 77% 30.30 in 10.0 mi North 10.4 mph - N/A   Overcast
10:54 PM 14.0 °F -1.4 °F 8.1 °F 77% 30.31 in 10.0 mi North 15.0 mph - N/A   Scattered Clouds
11:51 PM 14.0 °F -1.4 °F 8.6 °F 79% 30.26 in 10.0 mi North 15.0 mph 21.9 mph N/A   Mostly Cloudy
11:54 PM 14.0 °F -2.5 °F 7.0 °F 74% 30.30 in 10.0 mi North 17.3 mph 24.2 mph N/A   Mostly Cloudy